Santa Fe, NM

2:02 PM MDT on May 23, 2017 (GMT -0600)
Santa Fe Municipal

Weather History for KSAF - November, 2011

Change the Weather History Date:

Monday, November 21, 2011

  Actual Average Record
Temperature  
Mean Temperature 44 °F -  
Max Temperature 54 °F 51 °F 62 °F (1996)
Min Temperature 32 °F 26 °F 19 °F (1998)
Degree Days  
Heating Degree Days 21    
Moisture  
Dew Point 28 °F    
Average Humidity 59    
Maximum Humidity 82    
Minimum Humidity 33    
Precipitation  
Precipitation 0.00 in - - ()
Sea Level Pressure  
Sea Level Pressure 29.97 in    
Wind  
Wind Speed 7 mph (NNW)    
Max Wind Speed 17 mph    
Max Gust Speed 25 mph    
Visibility 10 miles    
Events      
Averages and records for this station are not official NWS values.
T = Trace of Precipitation, MM = Missing Value Source: NWS Daily Summary

Daily Weather History Graph

Daily Weather History Graph

Search for Another Location

Airport or City:

Trip Planner

Search our weather history database for the weather conditions in past years. The results will help you decide how hot, cold, wet, or windy it might be!

Date:

Astronomy

Nov. 21, 2011 Rise Set
Actual Time 6:45 AM MST 4:54 PM MST
Civil Twilight 6:18 AM MST 5:21 PM MST
Nautical Twilight 5:47 AM MST 5:52 PM MST
Astronomical Twilight 5:16 AM MST 6:23 PM MST
Moon 2:34 AM MST (11/21) 2:12 PM MST (11/21)
Length of Visible Light 11h 03m
Length of Day
10h 08m
Waning Crescent, 17% of the Moon is Illuminated
Nov 21
Waning Crescent
Nov 24
New
Dec 2
First Quarter
Dec 10
Full
Dec 17
Last Quarter

Hourly Weather History & Observations

Time (MST) Temp. Windchill Dew Point Humidity Pressure Visibility Wind Dir Wind Speed Gust Speed Precip Events Conditions
12:53 AM 41.0 °F 39.0 °F 27.0 °F 57% 29.95 in 10.0 mi ESE 3.5 mph - N/A   Clear
1:53 AM 43.0 °F 41.3 °F 28.0 °F 56% 29.93 in 10.0 mi West 3.5 mph - N/A   Clear
2:53 AM 39.9 °F 36.7 °F 28.0 °F 63% 29.95 in 10.0 mi ESE 4.6 mph - N/A   Clear
3:53 AM 39.9 °F 35.8 °F 28.0 °F 63% 29.94 in 10.0 mi ENE 5.8 mph - N/A   Clear
4:53 AM 34.0 °F 29.8 °F 27.0 °F 75% 29.97 in 10.0 mi North 4.6 mph - N/A   Clear
5:53 AM 37.0 °F 33.3 °F 28.0 °F 70% 29.97 in 10.0 mi North 4.6 mph - N/A   Mostly Cloudy
6:53 AM 37.0 °F 30.4 °F 27.0 °F 67% 29.98 in 10.0 mi North 9.2 mph - N/A   Overcast
7:53 AM 39.0 °F 33.4 °F 26.1 °F 60% 29.99 in 10.0 mi North 8.1 mph - N/A   Clear
8:53 AM 42.1 °F 36.1 °F 25.0 °F 51% 29.99 in 10.0 mi North 10.4 mph - N/A   Clear
9:53 AM 45.0 °F 38.5 °F 25.0 °F 46% 29.96 in 10.0 mi North 13.8 mph - N/A   Partly Cloudy
10:53 AM 48.0 °F - 27.0 °F 44% 29.93 in 10.0 mi NNE 6.9 mph - N/A   Clear
12:53 PM 53.1 °F - 28.0 °F 38% 29.86 in 10.0 mi SW 8.1 mph - N/A   Clear
1:53 PM 54.0 °F - 27.0 °F 35% 29.83 in 10.0 mi WSW 13.8 mph - N/A   Clear
2:53 PM 54.0 °F - 25.0 °F 33% 29.85 in 10.0 mi WSW 17.3 mph 25.3 mph N/A   Scattered Clouds
3:53 PM 50.0 °F - 26.1 °F 39% 29.90 in 10.0 mi WNW 13.8 mph - N/A   Overcast
4:53 PM 43.0 °F 38.2 °F 30.9 °F 62% 29.98 in 10.0 mi NNW 8.1 mph - N/A   Partly Cloudy
6:53 PM 37.9 °F 33.5 °F 28.9 °F 70% 30.03 in 10.0 mi NNW 5.8 mph - N/A   Clear
7:53 PM 37.9 °F 31.5 °F 30.0 °F 73% 30.05 in 10.0 mi NNW 9.2 mph - N/A   Partly Cloudy
8:53 PM 36.0 °F 29.0 °F 30.0 °F 79% 30.08 in 10.0 mi NNW 9.2 mph - N/A   Clear
9:53 PM 36.0 °F 29.0 °F 30.0 °F 79% 30.09 in 10.0 mi North 9.2 mph - N/A   Clear
10:53 PM 32.0 °F 24.2 °F 27.0 °F 82% 30.12 in 10.0 mi North 9.2 mph - N/A   Clear